Wind_Speed
63 62 62 62 60 57 54 52 50 47 46 45 44 44 44 44 45 45 45 45 45 45 44 45 46 47 48 49 50 51 51 51 53 55 56 56 56 55 55 54 54 53
60 59 59 58 55 52 50 48 47 45 44 44 42 42 41 42 42 42 43 43 44 44 44 44 44 45 46 47 48 49 50 50 50 51 52 54 54 55 55 55 55 54
55 54 53 51 49 48 47 46 45 44 43 43 42 41 40 40 40 40 41 41 42 43 43 43 43 44 45 45 46 47 48 49 49 49 49 50 51 53 54 55 55 55
50 49 49 48 47 47 47 46 44 43 42 41 41 40 40 39 39 40 40 40 40 41 41 41 42 42 43 44 45 45 46 47 48 49 49 49 49 50 51 52 53 54
47 47 48 48 48 48 47 46 45 42 40 39 39 39 39 39 39 39 39 39 39 39 39 38 39 39 40 41 42 44 45 45 46 47 48 49 49 48 49 50 50 51
46 47 47 47 48 48 48 46 43 41 39 38 38 38 38 38 38 37 38 38 39 39 38 37 37 37 38 38 40 41 42 44 45 46 47 48 48 48 48 48 49 49
47 46 46 46 45 45 45 43 41 40 39 39 39 39 39 39 38 38 39 40 41 41 40 39 38 38 38 38 39 40 41 42 43 44 46 46 47 47 47 47 48 49
45 46 46 44 41 41 42 41 40 40 40 41 41 41 41 41 40 40 42 43 43 42 41 41 40 39 39 39 40 40 41 41 42 43 44 45 46 46 46 47 47 48
41 43 44 41 39 40 41 40 40 41 41 43 44 44 44 43 42 43 46 47 45 42 42 42 42 41 40 40 41 42 42 41 41 41 42 43 44 44 45 46 46 47
37 37 38 38 39 40 40 40 41 42 43 45 45 45 45 44 45 47 49 49 44 42 42 42 42 42 42 42 43 43 42 41 40 39 40 42 42 42 43 44 45 46
38 37 38 39 40 40 39 39 41 43 43 42 42 43 44 45 47 48 49 47 44 43 43 43 43 43 43 44 45 44 42 40 39 39 39 39 40 40 40 41 43 44
43 44 44 44 44 44 43 42 42 41 40 41 42 44 45 46 45 45 46 46 44 44 45 44 44 44 45 45 45 44 43 41 39 38 38 38 38 37 38 39 40 41
44 46 47 47 47 47 46 45 44 43 43 44 46 46 44 43 42 43 44 45 45 46 46 45 45 46 46 45 45 44 43 41 38 37 37 37 36 36 35 36 37 38
42 44 45 45 45 45 45 45 45 45 46 46 45 43 42 42 43 44 45 46 47 47 47 47 48 47 46 45 45 44 42 39 37 36 36 36 35 35 34 34 34 35
39 40 42 43 44 45 45 46 46 46 46 45 43 41 42 44 46 47 48 48 49 49 50 49 49 48 46 45 44 42 40 38 36 36 36 35 35 34 34 33 33 33
38 39 40 42 43 44 45 46 47 47 47 46 45 44 45 47 48 49 50 50 50 50 50 49 48 46 45 43 41 40 39 37 36 36 36 35 34 34 34 33 32 32
39 39 40 41 42 43 44 44 45 46 46 46 46 46 47 47 47 47 47 47 47 46 45 44 44 43 42 40 40 39 39 38 38 37 36 35 34 33 33 34 33 33
40 40 41 41 42 42 42 42 42 43 43 43 44 44 44 44 44 44 43 42 42 41 41 40 40 40 40 39 39 38 38 38 38 37 36 36 35 34 34 34 34 34
41 41 41 41 41 41 41 41 40 41 41 41 42 42 43 43 42 42 41 40 40 39 38 38 38 38 38 38 38 37 37 38 38 37 37 37 36 36 35 35 35 34
41 41 40 40 40 40 40 40 40 40 40 41 42 42 41 41 40 40 39 38 38 37 37 36 36 37 36 36 36 36 37 38 38 38 38 37 37 37 37 36 35 33
41 41 40 39 39 39 39 39 39 39 40 40 41 42 41 40 39 38 37 37 37 37 36 36 36 36 36 36 36 37 37 38 39 38 38 38 38 38 37 36 33 31
42 42 41 40 39 39 39 39 39 39 39 39 40 40 40 39 38 37 37 37 37 37 37 36 37 37 37 37 38 37 37 38 38 38 38 38 38 36 34 32 30 29
43 43 42 41 39 38 38 37 38 38 37 38 37 36 36 36 36 37 37 37 37 38 38 37 37 37 37 37 37 35 34 36 36 36 36 35 33 31 28 27 26 26
43 42 41 39 38 36 36 36 36 35 35 35 34 33 32 33 34 35 36 37 37 37 37 37 37 37 36 35 33 31 31 32 32 30 29 28 26 24 23 23 23 23
41 40 38 37 35 35 34 34 34 34 33 32 31 31 30 31 33 34 34 35 36 36 36 35 34 33 32 30 27 27 28 27 25 24 23 23 22 21 21 20 21 20
38 37 36 35 34 34 33 33 33 32 32 31 30 30 30 31 32 33 33 33 33 32 32 30 29 28 26 24 23 24 24 23 21 20 20 19 19 18 18 18 18 19
Wind_Direction
311 311 311 310 310 309 308 307 306 305 304 303 302 300 297 294 292 290 288 286 283 280 277 275 273 272 272 271 270 269 268 266 265 264 263 262 260 259 257 256 254 253
309 309 308 307 307 306 305 304 304 305 305 304 304 302 299 295 292 290 289 288 286 284 281 278 276 274 273 272 271 270 269 268 267 266 264 263 262 261 259 258 257 255
307 306 305 304 304 304 304 303 302 303 304 304 304 302 300 297 294 292 291 290 289 287 286 284 282 279 277 275 274 272 271 269 268 267 266 265 264 263 261 260 259 258
303 303 302 302 302 302 302 301 300 301 301 301 301 300 300 299 297 295 294 293 291 290 290 289 288 286 283 280 278 276 274 272 270 268 267 266 266 265 264 262 260 259
298 299 299 300 301 301 299 297 297 297 297 297 297 297 298 299 298 297 296 295 294 292 292 292 292 290 288 285 283 280 278 275 273 270 268 267 268 267 266 265 263 261
292 294 296 297 298 297 295 293 293 293 293 293 293 294 296 297 296 296 297 297 296 294 293 293 293 293 291 288 286 284 281 279 277 274 271 268 268 268 268 268 266 264
289 290 291 292 292 291 291 291 290 290 291 291 290 291 292 293 294 294 295 297 297 295 293 292 293 293 293 292 290 287 285 283 281 279 276 272 270 269 269 269 268 267
286 286 286 285 283 286 289 290 289 290 290 290 290 290 290 290 291 291 294 296 296 293 292 292 292 293 293 293 293 292 290 287 284 282 279 277 274 271 270 270 269 268
286 283 280 278 278 284 288 288 288 289 289 289 289 289 290 289 288 289 292 294 293 291 291 290 291 292 293 294 295 295 294 291 288 284 282 280 277 274 272 271 269 269
286 281 278 278 282 287 289 287 287 287 288 289 289 289 289 288 287 290 292 292 290 289 289 290 290 292 293 294 295 296 295 293 289 285 283 282 279 277 275 273 270 269
282 281 281 282 285 287 287 286 287 288 289 289 288 287 287 288 290 292 292 290 288 288 289 289 290 292 293 293 294 295 295 293 288 285 284 283 282 280 278 275 272 270
280 281 282 283 285 286 286 285 285 286 286 284 284 285 288 290 291 290 289 288 287 287 288 289 291 292 293 293 294 294 294 291 288 285 284 284 283 283 282 279 276 273
282 282 283 284 285 286 285 284 282 282 281 282 284 288 290 289 286 283 284 285 286 286 287 289 291 293 292 292 292 292 291 289 287 285 284 284 284 284 283 282 279 276
287 285 285 285 285 285 284 284 284 283 284 285 286 287 286 283 280 281 283 284 284 285 287 289 292 292 291 290 290 290 289 288 286 286 285 284 283 283 283 282 280 278
292 289 287 286 285 285 285 286 286 286 286 285 283 281 279 278 280 283 284 285 286 286 288 290 291 290 288 288 288 288 288 287 286 287 287 285 284 284 284 283 281 279
294 292 290 288 288 287 287 287 287 286 285 284 282 279 279 280 282 284 286 287 288 288 289 289 288 287 287 288 288 288 287 286 286 286 286 286 285 285 284 284 283 281
297 295 293 292 291 290 289 288 287 286 285 284 283 282 283 284 285 286 287 288 288 288 288 288 287 287 288 288 288 287 287 285 284 284 284 285 285 285 285 285 284 283
300 298 297 296 294 292 291 289 288 288 287 286 286 286 286 287 288 288 289 288 288 288 287 287 287 287 287 287 286 286 284 284 283 282 283 285 286 287 287 285 284 283
302 301 300 298 296 295 293 292 292 291 291 290 289 289 288 289 289 289 289 289 288 287 287 286 286 286 286 286 286 285 285 285 284 284 285 287 287 287 286 285 283 282
304 303 302 300 298 297 295 295 295 294 293 292 291 290 289 289 289 289 289 289 288 287 287 287 287 287 287 287 287 288 288 287 287 287 287 288 287 286 285 283 281 279
306 304 303 301 299 298 297 297 297 296 295 293 291 290 288 288 288 288 288 289 289 289 288 288 289 288 289 289 290 290 289 288 288 287 287 286 284 283 281 280 279 277
308 306 305 303 300 299 297 297 297 297 295 293 292 289 287 286 286 287 288 288 288 289 289 289 289 289 290 290 290 290 288 287 286 285 283 281 279 278 277 277 276 275
309 308 306 305 302 300 299 299 299 298 297 295 293 291 287 286 286 287 287 287 288 288 289 289 289 289 289 289 289 287 285 283 282 280 279 278 277 276 276 275 274 274
310 309 308 307 305 304 303 303 302 301 300 298 296 293 290 287 286 286 287 288 288 288 288 288 289 288 288 288 287 284 281 280 280 280 279 279 278 277 275 274 273 272
312 311 310 309 309 308 307 306 305 304 303 301 298 295 292 290 288 288 288 288 288 288 288 288 288 288 288 288 286 283 281 282 283 282 281 279 277 275 273 272 270 267
312 312 312 312 312 311 310 309 308 307 305 303 300 297 294 291 290 289 289 289 289 289 289 289 289 289 289 289 286 283 283 285 285 283 280 278 277 275 272 269 267 265
Height
2983 2980 2978 2976 2974 2972 2970 2968 2966 2964 2963 2961 2960 2958 2956 2954 2952 2951 2949 2948 2948 2947 2946 2945 2944 2943 2942 2941 2941 2941 2941 2941 2940 2940 2941 2941 2942 2942 2943 2944 2945 2946
2977 2974 2972 2970 2968 2966 2964 2962 2961 2959 2957 2955 2954 2952 2950 2948 2946 2945 2943 2941 2941 2940 2939 2938 2938 2937 2936 2935 2934 2934 2933 2933 2933 2933 2933 2934 2934 2934 2935 2936 2937 2938
2970 2968 2966 2964 2962 2960 2959 2957 2955 2954 2952 2950 2948 2947 2945 2943 2941 2939 2937 2936 2934 2933 2932 2932 2931 2930 2929 2928 2927 2927 2926 2926 2926 2926 2926 2926 2926 2927 2927 2928 2929 2930
2964 2962 2960 2958 2956 2955 2953 2951 2950 2949 2947 2945 2943 2941 2940 2938 2936 2934 2932 2930 2929 2928 2927 2926 2925 2924 2923 2922 2921 2920 2920 2919 2919 2919 2919 2919 2919 2919 2919 2920 2921 2922
2959 2956 2954 2952 2950 2949 2947 2946 2945 2943 2941 2940 2938 2936 2934 2933 2931 2929 2927 2925 2924 2923 2922 2921 2919 2918 2917 2916 2915 2913 2913 2912 2912 2911 2911 2912 2911 2912 2912 2912 2913 2914
2953 2951 2949 2947 2945 2943 2941 2940 2939 2937 2936 2934 2932 2931 2929 2928 2926 2924 2922 2921 2919 2918 2917 2916 2914 2913 2912 2910 2909 2908 2906 2906 2905 2905 2904 2904 2904 2905 2905 2905 2905 2906
2947 2946 2944 2941 2939 2937 2935 2934 2933 2931 2930 2928 2927 2925 2924 2922 2921 2919 2918 2916 2915 2913 2912 2911 2909 2908 2907 2905 2904 2902 2901 2900 2899 2898 2898 2897 2897 2898 2898 2898 2898 2899
2941 2939 2937 2936 2933 2931 2929 2928 2927 2925 2924 2922 2921 2920 2918 2917 2915 2914 2912 2911 2910 2908 2906 2905 2904 2903 2901 2900 2898 2897 2896 2894 2893 2892 2891 2891 2891 2891 2891 2891 2891 2892
2934 2932 2931 2929 2927 2925 2924 2922 2921 2920 2918 2916 2914 2913 2912 2911 2909 2908 2906 2905 2904 2902 2901 2899 2898 2897 2896 2895 2893 2892 2890 2889 2888 2886 2885 2885 2884 2885 2884 2884 2885 2885
2928 2926 2925 2923 2921 2920 2918 2917 2915 2914 2912 2910 2909 2907 2906 2904 2903 2901 2900 2899 2898 2897 2895 2894 2892 2891 2890 2889 2888 2886 2885 2884 2882 2881 2880 2879 2878 2878 2878 2878 2878 2879
2922 2920 2919 2917 2916 2914 2913 2911 2909 2908 2906 2905 2903 2901 2900 2898 2896 2895 2893 2892 2892 2891 2890 2889 2887 2886 2885 2883 2882 2881 2879 2878 2876 2875 2874 2873 2872 2872 2872 2871 2872 2872
2916 2914 2913 2911 2910 2908 2907 2905 2904 2902 2901 2899 2898 2896 2894 2892 2890 2889 2887 2886 2886 2885 2884 2883 2882 2880 2879 2878 2876 2875 2873 2872 2871 2870 2869 2868 2867 2867 2866 2865 2866 2866
2910 2908 2907 2905 2904 2902 2901 2899 2898 2896 2895 2893 2891 2890 2888 2887 2885 2883 2882 2880 2880 2879 2878 2877 2876 2875 2873 2872 2871 2869 2867 2866 2865 2864 2863 2862 2862 2861 2861 2860 2860 2860
2904 2902 2901 2899 2897 2896 2894 2893 2891 2890 2888 2886 2885 2884 2882 2881 2879 2877 2876 2874 2873 2872 2871 2871 2870 2869 2868 2866 2865 2863 2861 2860 2859 2859 2858 2857 2856 2856 2856 2855 2855 2855
2899 2897 2895 2893 2892 2890 2888 2887 2885 2883 2881 2880 2879 2877 2876 2874 2873 2871 2869 2868 2867 2866 2865 2864 2863 2862 2861 2860 2859 2857 2856 2855 2854 2853 2852 2851 2851 2851 2850 2850 2850 2849
2894 2892 2890 2888 2886 2884 2882 2880 2878 2876 2875 2873 2872 2871 2869 2868 2866 2864 2863 2862 2861 2859 2858 2858 2857 2856 2855 2854 2853 2851 2850 2849 2849 2848 2847 2846 2846 2846 2845 2845 2845 2844
2888 2886 2885 2882 2880 2878 2876 2874 2872 2870 2868 2866 2865 2864 2862 2861 2860 2858 2857 2856 2854 2853 2853 2851 2851 2850 2849 2848 2847 2846 2844 2843 2843 2842 2842 2841 2841 2841 2840 2840 2839 2839
2883 2881 2879 2877 2874 2872 2870 2868 2866 2864 2862 2860 2859 2857 2856 2855 2853 2852 2851 2850 2848 2848 2847 2846 2845 2844 2843 2842 2841 2840 2839 2838 2837 2837 2836 2836 2836 2836 2835 2835 2834 2833
2877 2875 2873 2870 2868 2866 2864 2862 2860 2858 2856 2854 2853 2851 2850 2848 2847 2846 2845 2843 2842 2842 2841 2840 2840 2838 2837 2837 2836 2835 2834 2832 2831 2831 2831 2831 2831 2830 2830 2829 2829 2828
2871 2869 2867 2864 2862 2860 2858 2856 2854 2852 2851 2849 2847 2845 2844 2843 2841 2840 2839 2838 2837 2836 2835 2835 2834 2833 2832 2831 2830 2829 2828 2826 2825 2826 2826 2826 2825 2824 2824 2823 2823 2823
2866 2863 2861 2859 2856 2854 2852 2850 2849 2847 2845 2843 2841 2839 2838 2837 2835 2834 2833 2832 2831 2830 2830 2829 2829 2827 2827 2826 2825 2824 2822 2820 2820 2820 2820 2820 2819 2818 2818 2818 2817 2818
2860 2857 2855 2853 2851 2849 2847 2845 2843 2841 2839 2837 2835 2833 2832 2831 2830 2829 2828 2827 2826 2825 2824 2824 2823 2822 2821 2820 2819 2818 2815 2814 2814 2813 2813 2813 2813 2812 2813 2812 2812 2813
2854 2851 2849 2847 2845 2843 2841 2839 2837 2835 2833 2831 2829 2828 2826 2826 2825 2824 2823 2822 2821 2820 2819 2818 2817 2816 2815 2814 2813 2811 2809 2808 2808 2807 2807 2807 2807 2808 2808 2808 2808 2808
2849 2846 2843 2841 2839 2838 2836 2834 2832 2829 2827 2825 2824 2822 2821 2821 2820 2819 2818 2817 2815 2814 2813 2812 2812 2810 2809 2808 2807 2806 2804 2803 2803 2803 2803 2803 2804 2804 2804 2804 2804 2805
2844 2841 2839 2837 2835 2833 2831 2829 2826 2824 2823 2821 2819 2818 2817 2816 2814 2813 2813 2812 2810 2809 2808 2807 2806 2804 2803 2803 2803 2801 2799 2799 2800 2800 2800 2800 2800 2800 2801 2801 2801 2801
2840 2837 2834 2832 2830 2828 2826 2824 2822 2820 2818 2817 2815 2813 2812 2811 2809 2808 2808 2807 2805 2804 2803 2802 2801 2800 2799 2799 2798 2797 2796 2797 2797 2797 2797 2797 2797 2797 2797 2797 2797 2798